User: anonymous
Location: NJAA Observatory
(40.6819°N, 74.8979°W)
Time: 07:50:59
(UTC-04:00)
Language:

Meteor 2-9 Rocket - Orbit

View from above orbital plane
View from above orbital plane
View from above satellite
View from above satellite

Ground track
Ground track

The orbit data is extracted from the following two-line orbital elements,

1 13719U 82116B   14212.86547620  .00000135  00000-0  61986-4 0  4771
2 13719 081.2565 310.1823 0073000 111.6486 028.5166 14.14470971631731
Epoch (UTC): 31 July 2014 20:46:17
Eccentricity: 0.0073000
inclination: 81.2565°
perigee height: 791 km
apogee height: 897 km
right ascension of ascending node: 310.1823°
argument of perigee: 111.6486°
revolutions per day: 14.14470971
mean anomaly at epoch: 28.5166°
orbit number at epoch: 63173

The dashed part of the orbit path shows where the satellite is in the earth's shadow,  

DLR